Preview of NWS' New Version of Forecast
This preview is not operational and should not be used for support decisions.

Regional Weather Roundup (RWR)

Issued by National Weather Service (NWS)

                            
000
ASUS43 KLSX 231107
RWRMO 

WEATHER SUMMARY FOR MISSOURI
NATIONAL WEATHER SERVICE SPRINGFIELD MO
600 AM CDT FRI AUG 23 2019

NOTE: "FAIR" INDICATES FEW OR NO CLOUDS BELOW 12,000 FEET WITH NO
       SIGNIFICANT WEATHER AND/OR OBSTRUCTIONS TO VISIBILITY.
       CURRENT SKY AND/OR WEATHER CONDITIONS ARE NOT AVAILABLE FOR
       CHILLICOTHE AND FARMINGTON.

MOZ001>031-035>038-043-044-053-054-231200-
...NORTHERN AND WESTERN MISSOURI...
  
CITY           SKY/WX    TMP DP  RH WIND       PRES   REMARKS
KANSAS CTY INT MOCLDY    68  65  90 E8        30.04R                  
KANSAS C DTWN  PTCLDY    72  66  81 E7        30.02F                  
LEE'S SUMMIT   MOCLDY    69  66  90 NE7       30.04R                  
ST JOSEPH      CLEAR     68  61  78 E5        30.04S                  
CHILLICOTHE      N/A     63  61  93 CALM      30.08R                  
KIRKSVILLE     CLEAR     62  59  90 E6        30.10R                  
     
$$
MOZ066>068-077>081-088>096-101>105-231200-
...SOUTHWEST MISSOURI...
  
CITY           SKY/WX    TMP DP  RH WIND       PRES   REMARKS
SPRINGFIELD    PTCLDY    72  69  90 S5        30.00R                  
JOPLIN         MOCLDY    72  71  97 CALM      30.01R                  
               
$$
MOZ032>034-039>042-045>050-055>058-069>072-231200-
...CENTRAL MISSOURI...  
  
CITY           SKY/WX    TMP DP  RH WIND       PRES   REMARKS
COLUMBIA       CLEAR     67  65  93 E6        30.05R                  
JEFFERSON CITY CLEAR     69  66  90 SE3       30.03R                  
ROLLA          CLOUDY    69  67  93 E7        30.05R FOG              
SEDALIA        PTCLDY    67  67 100 NE6       30.04R                  
WHITEMAN AFB   MOCLDY    68  68 100 NE5       30.00R                  
WARRENSBURG    PTCLDY    68  64  88 N5        30.03R                  
OSAGE BEACH    CLOUDY    70  69  97 E6        30.03R                  
               
$$
MOZ051-052-059>065-231200-
...EAST CENTRAL MISSOURI...
  
CITY           SKY/WX    TMP DP  RH WIND       PRES   REMARKS
ST LOUIS INTL  MOCLDY    67  64  90 E5        30.05R                  
SPIRIT OF STL  MOCLDY    69  67  93 CALM      30.04R                  
ST CHARLES       N/A    N/A N/A N/A MISG      30.05R                  
                   
$$
MOZ072>076-082>087-097>100-106>115-231200-
...SOUTH CENTRAL AND SOUTHEAST MISSOURI...
  
CITY           SKY/WX    TMP DP  RH WIND       PRES   REMARKS
CAPE GIRARDEAU FAIR      71  69  93 CALM      30.01F                  
FARMINGTON     CLOUDY    71  71 100 E6        30.04F FOG              
POPLAR BLUFF   RAIN      71  70  96 SE3       30.01R FOG              
WEST PLAINS    CLOUDY    71  69  93 E5        30.05R THUNDER          
                                       
$$